| time (UTC) | temp F | wind direction | speed MPH | gust MPH | rain 1hr in | rain 24hr in | rain mn in | humidity % | barometer mb |
| 20260506154205 | 47 | 300 | 2.0 | 4.0 | 0.03 | 0.28 | 0.22 | 90 | 1008.3 |
| 20260506153704 | 47 | 262 | 2.0 | 4.0 | 0.03 | 0.28 | 0.21 | 89 | 1008.3 |
| 20260506153205 | 47 | 248 | 2.0 | 3.0 | 0.03 | 0.28 | 0.21 | 90 | 1008.3 |
| 20260506152705 | 47 | 283 | 1.0 | 3.0 | 0.03 | 0.28 | 0.21 | 90 | 1008.3 |
| 20260506152205 | 47 | 280 | 1.0 | 3.0 | 0.02 | 0.27 | 0.20 | 90 | 1008.2 |
| 20260506151705 | 47 | 299 | 1.0 | 3.0 | 0.02 | 0.27 | 0.20 | 90 | 1008.2 |
| 20260506151205 | 47 | 229 | 1.0 | 8.0 | 0.02 | 0.28 | 0.20 | 90 | 1008.2 |
| 20260506150705 | 47 | 307 | 2.0 | 9.0 | 0.02 | 0.30 | 0.20 | 90 | 1008.1 |
| 20260506150205 | 47 | 198 | 3.0 | 9.0 | 0.02 | 0.34 | 0.20 | 88 | 1008.2 |
| 20260506145705 | 47 | 288 | 3.0 | 9.0 | 0.02 | 0.34 | 0.20 | 88 | 1008.1 |
| 20260506145205 | 48 | 255 | 2.0 | 5.0 | 0.02 | 0.33 | 0.19 | 89 | 1008.1 |
| 20260506143205 | 48 | 256 | 3.0 | 5.0 | 0.01 | 0.32 | 0.18 | 88 | 1008.0 |
| 20260506142705 | 48 | 240 | 2.0 | 4.0 | 0.01 | 0.32 | 0.18 | 90 | 1008.0 |
| 20260506141705 | 48 | 269 | 2.0 | 5.0 | 0.02 | 0.32 | 0.18 | 89 | 1007.9 |
| 20260506141205 | 48 | 274 | 2.0 | 4.0 | 0.02 | 0.32 | 0.18 | 89 | 1007.9 |
| 20260506140205 | 48 | 274 | 1.0 | 6.0 | 0.01 | 0.31 | 0.17 | 90 | 1007.8 |
| 20260506135705 | 48 | 298 | 1.0 | 6.0 | 0.01 | 0.31 | 0.17 | 89 | 1007.8 |
| 20260506134705 | 48 | 207 | 2.0 | 10.0 | 0.01 | 0.31 | 0.17 | 89 | 1007.8 |
| 20260506134205 | 48 | 248 | 3.0 | 10.0 | 0.01 | 0.31 | 0.17 | 89 | 1007.8 |
| 20260506133705 | 48 | 199 | 4.0 | 13.0 | 0.01 | 0.31 | 0.17 | 89 | 1007.8 |
| 20260506133205 | 48 | 200 | 5.0 | 13.0 | 0.01 | 0.31 | 0.17 | 88 | 1007.9 |
| 20260506132205 | 49 | 225 | 5.0 | 11.0 | 0.01 | 0.31 | 0.17 | 89 | 1007.8 |
| 20260506131705 | 50 | 219 | 3.0 | 8.0 | 0.00 | 0.31 | 0.17 | 91 | 1007.7 |
| 20260506130705 | 50 | 312 | 4.0 | 9.0 | 0.01 | 0.31 | 0.17 | 90 | 1007.5 |
| 20260506130205 | 50 | 252 | 3.0 | 9.0 | 0.01 | 0.31 | 0.17 | 91 | 1007.5 |
| 20260506123705 | 50 | 231 | 2.0 | 4.0 | 0.02 | 0.31 | 0.17 | 91 | 1007.1 |
| 20260506123205 | 50 | 243 | 2.0 | 5.0 | 0.02 | 0.31 | 0.17 | 91 | 1007.0 |
| 20260506122705 | 50 | 248 | 2.0 | 7.0 | 0.02 | 0.31 | 0.17 | 92 | 1007.1 |
| 20260506122205 | 50 | 220 | 3.0 | 7.0 | 0.02 | 0.31 | 0.17 | 92 | 1007.1 |
| 20260506121705 | 50 | 190 | 3.0 | 7.0 | 0.02 | 0.31 | 0.17 | 91 | 1007.0 |
| 20260506121205 | 51 | 188 | 2.0 | 7.0 | 0.02 | 0.31 | 0.17 | 92 | 1007.0 |
| 20260506115205 | 51 | 273 | 3.0 | 5.0 | 0.02 | 0.30 | 0.16 | 92 | 1006.8 |
| 20260506114705 | 51 | 321 | 2.0 | 5.0 | 0.03 | 0.30 | 0.16 | 94 | 1006.9 |
| 20260506114205 | 51 | 279 | 2.0 | 5.0 | 0.02 | 0.29 | 0.15 | 93 | 1006.8 |
| 20260506113705 | 51 | 271 | 2.0 | 5.0 | 0.02 | 0.28 | 0.14 | 93 | 1006.8 |
| 20260506113205 | 51 | 272 | 2.0 | 4.0 | 0.02 | 0.28 | 0.14 | 93 | 1006.8 |
| 20260506112705 | 51 | 293 | 1.0 | 6.0 | 0.07 | 0.28 | 0.14 | 93 | 1006.8 |
| 20260506112205 | 51 | 279 | 2.0 | 6.0 | 0.13 | 0.28 | 0.14 | 93 | 1006.7 |
| 20260506111705 | 51 | 295 | 2.0 | 7.0 | 0.14 | 0.28 | 0.14 | 93 | 1006.8 |
| 20260506111205 | 51 | 266 | 3.0 | 7.0 | 0.14 | 0.28 | 0.14 | 93 | 1006.8 |
| 20260506110705 | 51 | 331 | 4.0 | 7.0 | 0.14 | 0.28 | 0.14 | 93 | 1006.8 |
| 20260506110206 | 51 | 262 | 4.0 | 7.0 | 0.14 | 0.28 | 0.14 | 92 | 1006.9 |
| 20260506105705 | 51 | 296 | 3.0 | 8.0 | 0.13 | 0.28 | 0.13 | 92 | 1006.8 |
| 20260506105205 | 51 | 282 | 4.0 | 8.0 | 0.13 | 0.27 | 0.13 | 92 | 1006.9 |
| 20260506104706 | 51 | 297 | 4.0 | 8.0 | 0.13 | 0.27 | 0.13 | 92 | 1006.8 |
| 20260506103705 | 51 | 313 | 2.0 | 7.0 | 0.13 | 0.27 | 0.13 | 91 | 1006.9 |
| 20260506103205 | 52 | 294 | 2.0 | 7.0 | 0.11 | 0.25 | 0.11 | 88 | 1006.8 |
| 20260506102705 | 52 | 234 | 3.0 | 7.0 | 0.06 | 0.20 | 0.06 | 88 | 1006.8 |
| 20260506102205 | 53 | 244 | 3.0 | 7.0 | 0.00 | 0.14 | 0.00 | 87 | 1006.8 |
| 20260506101705 | 54 | 236 | 3.0 | 7.0 | 0.00 | 0.14 | 0.00 | 86 | 1006.7 |
| 20260506101205 | 55 | 264 | 4.0 | 7.0 | 0.00 | 0.14 | 0.00 | 84 | 1006.7 |
| 20260506100705 | 56 | 354 | 3.0 | 7.0 | 0.00 | 0.14 | 0.00 | 81 | 1006.6 |
| 20260506100235 | 57 | 311 | 1.0 | 3.0 | 0.00 | 0.14 | 0.00 | 77 | 1006.6 |
| 20260506095705 | 56 | 180 | 1.0 | 3.0 | 0.00 | 0.14 | 0.00 | 77 | 1006.6 |
| 20260506094706 | 56 | 167 | 0.0 | 2.0 | 0.00 | 0.14 | 0.00 | 77 | 1006.6 |
| 20260506094205 | 56 | 134 | 0.0 | 1.0 | 0.00 | 0.14 | 0.00 | 77 | 1006.6 |
| 20260506093705 | 56 | 134 | 0.0 | 0.0 | 0.00 | 0.14 | 0.00 | 74 | 1006.5 |
| 20260506092705 | 56 | 134 | 0.0 | 1.0 | 0.00 | 0.14 | 0.00 | 73 | 1006.6 |
| 20260506092205 | 56 | 134 | 0.0 | 1.0 | 0.00 | 0.14 | 0.00 | 73 | 1006.6 |
| 20260506091705 | 56 | 134 | 0.0 | 1.0 | 0.00 | 0.14 | 0.00 | 75 | 1006.6 |
| 20260506091205 | 56 | 134 | 0.0 | 1.0 | 0.00 | 0.14 | 0.00 | 76 | 1006.7 |
| 20260506090705 | 56 | 134 | 0.0 | 2.0 | 0.00 | 0.14 | 0.00 | 74 | 1006.6 |
| 20260506090205 | 56 | 147 | 0.0 | 2.0 | 0.00 | 0.14 | 0.00 | 73 | 1006.6 |
| 20260506085705 | 56 | 147 | 0.0 | 2.0 | 0.00 | 0.14 | 0.00 | 76 | 1006.6 |
| 20260506085205 | 56 | 133 | 0.0 | 2.0 | 0.00 | 0.14 | 0.00 | 78 | 1006.6 |
| 20260506084705 | 56 | 162 | 0.0 | 2.0 | 0.00 | 0.14 | 0.00 | 80 | 1006.6 |
| 20260506084205 | 55 | 180 | 1.0 | 2.0 | 0.00 | 0.14 | 0.00 | 80 | 1006.6 |
| 20260506083705 | 55 | 117 | 1.0 | 2.0 | 0.00 | 0.14 | 0.00 | 79 | 1006.5 |
| 20260506083205 | 55 | 189 | 0.0 | 3.0 | 0.00 | 0.14 | 0.00 | 82 | 1006.4 |
| 20260506082705 | 54 | 180 | 1.0 | 3.0 | 0.00 | 0.14 | 0.00 | 82 | 1006.3 |
| 20260506082205 | 54 | 180 | 1.0 | 3.0 | 0.00 | 0.14 | 0.00 | 83 | 1006.4 |
| 20260506081705 | 54 | 155 | 1.0 | 3.0 | 0.00 | 0.14 | 0.00 | 87 | 1006.3 |
| 20260506081205 | 53 | 176 | 0.0 | 2.0 | 0.00 | 0.14 | 0.00 | 87 | 1006.3 |
| 20260506080706 | 53 | 127 | 0.0 | 2.0 | 0.00 | 0.14 | 0.00 | 87 | 1006.4 |
| 20260506080205 | 52 | 95 | 0.0 | 2.0 | 0.00 | 0.14 | 0.00 | 88 | 1006.4 |
| 20260506073205 | 50 | 95 | 0.0 | 1.0 | 0.00 | 0.14 | 0.00 | 96 | 1006.6 |
| 20260506072705 | 49 | 95 | 0.0 | 1.0 | 0.00 | 0.14 | 0.00 | 97 | 1006.6 |
| 20260506072205 | 49 | 95 | 0.0 | 1.0 | 0.00 | 0.14 | 0.00 | 97 | 1006.6 |
| 20260506071705 | 49 | 67 | 0.0 | 0.0 | 0.00 | 0.14 | 0.00 | 97 | 1006.6 |
| 20260506071205 | 48 | 66 | 0.0 | 0.0 | 0.00 | 0.14 | 0.00 | 97 | 1006.6 |
| 20260506070705 | 48 | 66 | 0.0 | 0.0 | 0.00 | 0.14 | 0.00 | 97 | 1006.6 |
| 20260506070205 | 47 | 66 | 0.0 | 0.0 | 0.00 | 0.14 | 0.00 | 97 | 1006.6 |
| 20260506062205 | 46 | 1 | 0.0 | 0.0 | 0.00 | 0.14 | 0.00 | 98 | 1006.6 |
| 20260506061705 | 46 | 1 | 0.0 | 1.0 | 0.00 | 0.15 | 0.00 | 98 | 1006.6 |
| 20260506061205 | 46 | 1 | 0.0 | 1.0 | 0.00 | 0.15 | 0.00 | 98 | 1006.7 |
| 20260506060705 | 45 | 1 | 0.0 | 1.0 | 0.00 | 0.15 | 0.00 | 98 | 1006.8 |
| 20260506051205 | 43 | 46 | 0.0 | 2.0 | 0.00 | 0.15 | 0.00 | 97 | 1006.9 |
| 20260506050705 | 43 | 264 | 0.0 | 0.0 | 0.00 | 0.15 | 0.00 | 97 | 1006.8 |
| 20260506050205 | 43 | 264 | 0.0 | 0.0 | 0.00 | 0.15 | 0.00 | 97 | 1006.8 |
| 20260506044705 | 42 | 254 | 0.0 | 1.0 | 0.00 | 0.15 | 0.00 | 97 | 1006.9 |
| 20260506044205 | 42 | 254 | 0.0 | 1.0 | 0.00 | 0.15 | 0.00 | 97 | 1007.0 |
| 20260506043705 | 42 | 254 | 0.0 | 2.0 | 0.00 | 0.15 | 0.00 | 97 | 1007.0 |
| 20260506043206 | 42 | 254 | 0.0 | 2.0 | 0.00 | 0.15 | 0.00 | 97 | 1007.1 |
| 20260506042705 | 42 | 254 | 0.0 | 2.0 | 0.00 | 0.15 | 0.00 | 97 | 1007.1 |
| 20260506041705 | 42 | 254 | 0.0 | 1.0 | 0.00 | 0.15 | 0.00 | 97 | 1007.0 |
| 20260506041205 | 42 | 254 | 0.0 | 2.0 | 0.00 | 0.15 | 0.00 | 97 | 1007.1 |
| 20260506040705 | 42 | 254 | 0.0 | 2.0 | 0.00 | 0.15 | 0.00 | 97 | 1007.2 |
| 20260506040205 | 42 | 254 | 0.0 | 2.0 | 0.00 | 0.15 | 0.00 | 97 | 1007.2 |
| 20260506035705 | 42 | 313 | 0.0 | 2.0 | 0.00 | 0.15 | 0.00 | 97 | 1007.2 |
| 20260506035204 | 42 | 253 | 0.0 | 2.0 | 0.00 | 0.15 | 0.00 | 97 | 1007.4 |
| 20260506034205 | 42 | 314 | 0.0 | 1.0 | 0.00 | 0.15 | 0.00 | 97 | 1007.5 |
| 20260506033704 | 42 | 314 | 0.0 | 1.0 | 0.00 | 0.15 | 0.00 | 97 | 1007.5 |
| 20260506033205 | 42 | 314 | 0.0 | 0.0 | 0.00 | 0.15 | 0.00 | 97 | 1007.5 |
| 20260506032205 | 42 | 314 | 0.0 | 0.0 | 0.00 | 0.15 | 0.00 | 96 | 1007.5 |
| 20260506031705 | 42 | 314 | 0.0 | 2.0 | 0.00 | 0.15 | 0.00 | 97 | 1007.4 |
| 20260506031205 | 42 | 314 | 0.0 | 2.0 | 0.00 | 0.15 | 0.00 | 97 | 1007.4 |
| 20260506030205 | 42 | 314 | 0.0 | 2.0 | 0.00 | 0.15 | 0.00 | 97 | 1007.5 |
| 20260506025705 | 42 | 314 | 0.0 | 2.0 | 0.00 | 0.15 | 0.00 | 97 | 1007.6 |
| 20260506025206 | 42 | 314 | 0.0 | 2.0 | 0.00 | 0.15 | 0.00 | 97 | 1007.8 |
| 20260506024705 | 42 | 314 | 0.0 | 1.0 | 0.00 | 0.15 | 0.00 | 97 | 1007.8 |
| 20260506024205 | 42 | 314 | 0.0 | 1.0 | 0.00 | 0.15 | 0.00 | 97 | 1007.8 |
| 20260506023726 | 42 | 314 | 0.0 | 1.0 | 0.00 | 0.15 | 0.00 | 97 | 1007.8 |
| 20260506023205 | 42 | 314 | 0.0 | 2.0 | 0.00 | 0.15 | 0.00 | 97 | 1007.9 |
| 20260506022206 | 42 | 314 | 0.0 | 2.0 | 0.00 | 0.15 | 0.00 | 96 | 1008.1 |
| 20260506021705 | 43 | 314 | 1.0 | 2.0 | 0.00 | 0.15 | 0.00 | 96 | 1008.1 |
| 20260506021205 | 43 | 314 | 0.0 | 2.0 | 0.00 | 0.15 | 0.00 | 97 | 1008.1 |
| 20260506020705 | 43 | 314 | 0.0 | 0.0 | 0.00 | 0.15 | 0.00 | 97 | 1008.1 |
| 20260506020205 | 43 | 314 | 0.0 | 0.0 | 0.00 | 0.15 | 0.00 | 97 | 1008.0 |
| 20260506015705 | 43 | 314 | 0.0 | 2.0 | 0.00 | 0.15 | 0.00 | 97 | 1008.1 |
| 20260506015205 | 43 | 314 | 0.0 | 2.0 | 0.00 | 0.15 | 0.00 | 97 | 1008.1 |
| 20260506014706 | 43 | 314 | 0.0 | 1.0 | 0.00 | 0.15 | 0.00 | 97 | 1008.2 |
| 20260506013705 | 43 | 314 | 0.0 | 2.0 | 0.00 | 0.15 | 0.00 | 97 | 1008.2 |
| 20260506013205 | 43 | 314 | 0.0 | 2.0 | 0.00 | 0.15 | 0.00 | 97 | 1008.3 |
| 20260506012705 | 43 | 314 | 0.0 | 3.0 | 0.00 | 0.15 | 0.00 | 97 | 1008.4 |
| 20260506012205 | 43 | 314 | 1.0 | 3.0 | 0.00 | 0.15 | 0.00 | 97 | 1008.4 |
| 20260506011705 | 43 | 314 | 1.0 | 3.0 | 0.00 | 0.15 | 0.00 | 97 | 1008.6 |
| 20260506011205 | 43 | 314 | 0.0 | 2.0 | 0.00 | 0.15 | 0.00 | 97 | 1008.6 |
| 20260506010706 | 43 | 306 | 0.0 | 1.0 | 0.00 | 0.15 | 0.00 | 97 | 1008.9 |
| 20260506010205 | 43 | 306 | 0.0 | 2.0 | 0.00 | 0.15 | 0.00 | 97 | 1008.8 |
| 20260506005706 | 43 | 306 | 0.0 | 2.0 | 0.00 | 0.15 | 0.00 | 97 | 1008.4 |
| 20260506005206 | 43 | 306 | 0.0 | 2.0 | 0.00 | 0.15 | 0.00 | 97 | 1008.6 |
| 20260506004705 | 43 | 306 | 0.0 | 0.0 | 0.00 | 0.15 | 0.00 | 97 | 1008.7 |
| 20260506004205 | 42 | 306 | 0.0 | 0.0 | 0.00 | 0.15 | 0.00 | 96 | 1008.8 |
| 20260506003705 | 42 | 306 | 0.0 | 0.0 | 0.00 | 0.15 | 0.00 | 96 | 1008.7 |
| 20260506002705 | 42 | 306 | 0.0 | 0.0 | 0.00 | 0.15 | 0.00 | 96 | 1008.8 |
| 20260506002206 | 42 | 306 | 0.0 | 0.0 | 0.00 | 0.15 | 0.00 | 96 | 1008.7 |
| 20260506001705 | 42 | 306 | 0.0 | 0.0 | 0.00 | 0.15 | 0.00 | 96 | 1008.8 |
| 20260506000705 | 42 | 306 | 0.0 | 1.0 | 0.00 | 0.15 | 0.00 | 96 | 1009.0 |
| 20260506000205 | 43 | 306 | 0.0 | 1.0 | 0.00 | 0.15 | 0.00 | 96 | 1009.0 |
| 20260505235705 | 43 | 306 | 0.0 | 2.0 | 0.00 | 0.15 | 0.00 | 96 | 1009.0 |
| 20260505235204 | 43 | 306 | 0.0 | 2.0 | 0.00 | 0.15 | 0.00 | 96 | 1009.0 |
| 20260505234732 | 43 | 306 | 0.0 | 2.0 | 0.00 | 0.15 | 0.00 | 96 | 1009.1 |
| 20260505234205 | 43 | 306 | 0.0 | 0.0 | 0.00 | 0.15 | 0.00 | 96 | 1009.2 |
| 20260505233704 | 43 | 306 | 0.0 | 0.0 | 0.00 | 0.15 | 0.00 | 96 | 1009.2 |
| 20260505232722 | 43 | 306 | 0.0 | 0.0 | 0.00 | 0.15 | 0.00 | 95 | 1009.3 |
| 20260505231705 | 43 | 306 | 0.0 | 0.0 | 0.00 | 0.15 | 0.00 | 95 | 1009.3 |
| 20260505231205 | 43 | 306 | 0.0 | 0.0 | 0.00 | 0.15 | 0.00 | 95 | 1009.3 |
| 20260505230705 | 43 | 306 | 0.0 | 1.0 | 0.00 | 0.15 | 0.00 | 95 | 1009.4 |
| 20260505230205 | 43 | 306 | 0.0 | 2.0 | 0.00 | 0.15 | 0.00 | 95 | 1009.5 |
| 20260505225705 | 43 | 306 | 0.0 | 2.0 | 0.00 | 0.15 | 0.00 | 95 | 1009.5 |
| 20260505225205 | 43 | 306 | 0.0 | 2.0 | 0.00 | 0.15 | 0.00 | 95 | 1009.4 |
| 20260505224705 | 44 | 306 | 0.0 | 2.0 | 0.00 | 0.15 | 0.00 | 95 | 1009.4 |
| 20260505224205 | 44 | 306 | 0.0 | 1.0 | 0.00 | 0.15 | 0.00 | 95 | 1009.5 |
| 20260505223705 | 44 | 306 | 0.0 | 1.0 | 0.00 | 0.15 | 0.00 | 95 | 1009.5 |
| 20260505223205 | 44 | 306 | 0.0 | 1.0 | 0.00 | 0.15 | 0.00 | 95 | 1009.5 |
| 20260505222706 | 44 | 306 | 0.0 | 0.0 | 0.00 | 0.15 | 0.00 | 94 | 1009.4 |
| 20260505222205 | 44 | 306 | 0.0 | 0.0 | 0.00 | 0.15 | 0.00 | 94 | 1009.4 |
| 20260505221704 | 44 | 306 | 0.0 | 2.0 | 0.00 | 0.15 | 0.00 | 94 | 1009.3 |
| 20260505215705 | 45 | 274 | 0.0 | 4.0 | 0.00 | 0.15 | 0.15 | 94 | 1009.4 |
| 20260505215205 | 46 | 61 | 1.0 | 4.0 | 0.00 | 0.15 | 0.15 | 94 | 1009.4 |
| 20260505214717 | 46 | 41 | 1.0 | 3.0 | 0.00 | 0.15 | 0.15 | 94 | 1009.5 |
| 20260505214205 | 46 | 68 | 0.0 | 0.0 | 0.00 | 0.15 | 0.15 | 94 | 1009.5 |
| 20260505213205 | 46 | 143 | 0.0 | 1.0 | 0.01 | 0.15 | 0.15 | 94 | 1009.6 |
| 20260505212708 | 47 | 143 | 0.0 | 1.0 | 0.01 | 0.15 | 0.15 | 94 | 1009.6 |
| 20260505212205 | 47 | 143 | 0.0 | 1.0 | 0.01 | 0.15 | 0.15 | 94 | 1009.6 |
| 20260505211705 | 47 | 143 | 0.0 | 1.0 | 0.01 | 0.15 | 0.15 | 94 | 1009.6 |
| 20260505211205 | 47 | 205 | 0.0 | 4.0 | 0.01 | 0.15 | 0.15 | 94 | 1009.7 |
| 20260505210205 | 47 | 205 | 2.0 | 4.0 | 0.01 | 0.15 | 0.15 | 94 | 1009.6 |
| 20260505205205 | 47 | 259 | 1.0 | 4.0 | 0.01 | 0.15 | 0.15 | 94 | 1009.7 |
| 20260505204706 | 47 | 217 | 1.0 | 5.0 | 0.01 | 0.15 | 0.15 | 94 | 1009.6 |
| 20260505204205 | 47 | 218 | 1.0 | 5.0 | 0.00 | 0.14 | 0.14 | 94 | 1009.6 |
| 20260505203705 | 47 | 231 | 2.0 | 5.0 | 0.00 | 0.14 | 0.14 | 93 | 1009.6 |
| 20260505203205 | 47 | 250 | 2.0 | 5.0 | 0.00 | 0.14 | 0.14 | 93 | 1009.6 |
| 20260505202705 | 47 | 234 | 2.0 | 5.0 | 0.00 | 0.14 | 0.14 | 93 | 1009.5 |
| 20260505202205 | 48 | 239 | 1.0 | 6.0 | 0.00 | 0.14 | 0.14 | 93 | 1009.5 |
| 20260505201705 | 48 | 163 | 1.0 | 6.0 | 0.00 | 0.14 | 0.14 | 93 | 1009.5 |
| 20260505201205 | 48 | 158 | 1.0 | 6.0 | 0.00 | 0.14 | 0.14 | 93 | 1009.3 |
| 20260505200705 | 48 | 233 | 0.0 | 3.0 | 0.00 | 0.14 | 0.14 | 92 | 1009.2 |
| 20260505200205 | 48 | 276 | 1.0 | 3.0 | 0.00 | 0.14 | 0.14 | 92 | 1009.1 |
| 20260505195205 | 49 | 223 | 0.0 | 3.0 | 0.00 | 0.14 | 0.14 | 92 | 1009.1 |
| 20260505194705 | 49 | 223 | 1.0 | 4.0 | 0.00 | 0.14 | 0.14 | 92 | 1009.0 |
| 20260505194205 | 49 | 223 | 1.0 | 4.0 | 0.00 | 0.14 | 0.14 | 91 | 1009.1 |
| 20260505193205 | 49 | 209 | 1.0 | 3.0 | 0.02 | 0.14 | 0.14 | 91 | 1009.1 |
| 20260505192705 | 49 | 231 | 1.0 | 3.0 | 0.02 | 0.14 | 0.14 | 91 | 1009.1 |
| 20260505192205 | 49 | 228 | 1.0 | 3.0 | 0.02 | 0.14 | 0.14 | 91 | 1009.1 |
| 20260505191705 | 49 | 227 | 1.0 | 3.0 | 0.03 | 0.14 | 0.14 | 91 | 1008.9 |
| 20260505190705 | 50 | 224 | 1.0 | 6.0 | 0.06 | 0.14 | 0.14 | 91 | 1008.8 |
| 20260505185705 | 50 | 220 | 2.0 | 6.0 | 0.06 | 0.14 | 0.14 | 91 | 1008.8 |
| 20260505185205 | 50 | 253 | 2.0 | 6.0 | 0.06 | 0.14 | 0.14 | 91 | 1008.8 |
| 20260505184706 | 51 | 202 | 2.0 | 5.0 | 0.06 | 0.14 | 0.14 | 91 | 1008.9 |
| 20260505184205 | 51 | 179 | 2.0 | 7.0 | 0.05 | 0.13 | 0.13 | 90 | 1008.8 |
| 20260505183705 | 51 | 188 | 2.0 | 7.0 | 0.04 | 0.13 | 0.13 | 89 | 1009.0 |
| 20260505183205 | 51 | 195 | 3.0 | 7.0 | 0.04 | 0.13 | 0.13 | 89 | 1009.2 |
| 20260505182706 | 52 | 209 | 3.0 | 10.0 | 0.03 | 0.12 | 0.12 | 88 | 1009.2 |
| 20260505181205 | 53 | 237 | 4.0 | 8.0 | 0.00 | 0.09 | 0.09 | 86 | 1009.1 |
| 20260505180706 | 53 | 233 | 4.0 | 8.0 | 0.00 | 0.09 | 0.09 | 84 | 1008.8 |
| 20260505180205 | 53 | 222 | 4.0 | 8.0 | 0.00 | 0.09 | 0.09 | 83 | 1008.7 |
| 20260505175705 | 54 | 217 | 4.0 | 8.0 | 0.00 | 0.09 | 0.09 | 83 | 1008.7 |
| 20260505175205 | 54 | 272 | 4.0 | 10.0 | 0.00 | 0.09 | 0.09 | 83 | 1008.7 |
| 20260505174205 | 54 | 315 | 4.0 | 10.0 | 0.00 | 0.09 | 0.09 | 83 | 1008.7 |
| 20260505173705 | 54 | 269 | 3.0 | 7.0 | 0.00 | 0.09 | 0.09 | 82 | 1008.6 |
| 20260505173205 | 55 | 294 | 3.0 | 5.0 | 0.00 | 0.09 | 0.09 | 82 | 1008.6 |
| 20260505172705 | 55 | 298 | 3.0 | 6.0 | 0.00 | 0.09 | 0.09 | 82 | 1008.6 |
| 20260505172205 | 55 | 262 | 3.0 | 6.0 | 0.00 | 0.09 | 0.09 | 82 | 1008.6 |
| 20260505171705 | 55 | 291 | 3.0 | 6.0 | 0.00 | 0.09 | 0.09 | 81 | 1008.6 |
| 20260505171204 | 55 | 279 | 2.0 | 6.0 | 0.00 | 0.09 | 0.09 | 80 | 1008.4 |
| 20260505170705 | 56 | 248 | 3.0 | 8.0 | 0.00 | 0.09 | 0.09 | 82 | 1008.6 |
| 20260505170205 | 56 | 258 | 4.0 | 8.0 | 0.00 | 0.09 | 0.09 | 79 | 1008.4 |
| 20260505165205 | 57 | 224 | 1.0 | 5.0 | 0.00 | 0.09 | 0.09 | 82 | 1008.6 |
| 20260505164705 | 57 | 265 | 1.0 | 6.0 | 0.00 | 0.09 | 0.09 | 83 | 1008.4 |
| 20260505164205 | 56 | 219 | 1.0 | 8.0 | 0.00 | 0.09 | 0.09 | 83 | 1008.4 |
| 20260505163705 | 56 | 239 | 2.0 | 8.0 | 0.00 | 0.09 | 0.09 | 85 | 1008.6 |
| 20260505162705 | 54 | 273 | 1.0 | 6.0 | 0.00 | 0.09 | 0.09 | 88 | 1008.6 |
| 20260505162205 | 54 | 191 | 2.0 | 6.0 | 0.00 | 0.09 | 0.09 | 87 | 1008.6 |
| 20260505161734 | 54 | 220 | 2.0 | 4.0 | 0.00 | 0.09 | 0.09 | 86 | 1008.6 |
| 20260505161205 | 54 | 243 | 1.0 | 4.0 | 0.01 | 0.09 | 0.09 | 86 | 1008.6 |
| 20260505160205 | 54 | 1 | 1.0 | 3.0 | 0.08 | 0.09 | 0.09 | 88 | 1008.4 |